| time (UTC) | temp F | wind direction | speed MPH | gust MPH | rain 1hr in | rain 24hr in | rain mn in | humidity % | barometer mb |
| 20260906054610 | 58 | 0 | 0.0 | 3.0 | 0.00 | 0.05 | 0.00 | 92 | 1018.6 |
| 20260906053106 | 58 | 0 | 0.0 | 0.0 | 0.00 | 0.05 | 0.00 | 92 | 1018.6 |
| 20260906051839 | 59 | 0 | 0.0 | 0.0 | 0.00 | 0.00 | 0.00 | 91 | 1018.6 |
| 20260906051605 | 58 | 0 | 0.0 | 1.0 | 0.00 | 0.05 | 0.00 | 91 | 1018.6 |
| 20260906050104 | 59 | 0 | 0.0 | 0.0 | 0.00 | 0.05 | 0.00 | 91 | 1018.9 |
| 20260906044605 | 59 | 0 | 0.0 | 0.0 | 0.00 | 0.05 | 0.00 | 90 | 1018.8 |
| 20260906043104 | 60 | 0 | 0.0 | 1.0 | 0.00 | 0.05 | 0.00 | 90 | 1018.8 |
| 20260906041604 | 60 | 0 | 0.0 | 0.0 | 0.00 | 0.05 | 0.00 | 89 | 1018.6 |
| 20260906034607 | 61 | 0 | 0.0 | 0.0 | 0.00 | 0.05 | 0.05 | 88 | 1018.3 |
| 20260906034515 | 62 | 0 | 0.0 | 0.0 | 0.00 | 0.00 | 0.05 | 86 | 1018.3 |
| 20260906033107 | 62 | 0 | 0.0 | 1.0 | 0.00 | 0.05 | 0.05 | 86 | 1018.3 |
| 20260906031606 | 63 | 0 | 0.0 | 0.0 | 0.00 | 0.05 | 0.05 | 85 | 1018.3 |
| 20260906030954 | 64 | 0 | 0.0 | 0.0 | 0.00 | 0.00 | 0.05 | 84 | 1018.3 |
| 20260906030105 | 63 | 0 | 0.0 | 0.0 | 0.00 | 0.05 | 0.05 | 84 | 1018.3 |
| 20260906024608 | 64 | 0 | 0.0 | 1.0 | 0.00 | 0.05 | 0.05 | 84 | 1018.4 |
| 20260906023103 | 65 | 0 | 0.0 | 1.0 | 0.00 | 0.05 | 0.05 | 83 | 1018.3 |
| 20260906021606 | 65 | 0 | 0.0 | 1.0 | 0.00 | 0.05 | 0.05 | 82 | 1018.1 |
| 20260906020123 | 66 | 0 | 0.0 | 0.0 | 0.00 | 0.05 | 0.05 | 81 | 1018.2 |
| 20260906014616 | 67 | 0 | 0.0 | 4.0 | 0.00 | 0.05 | 0.05 | 80 | 1018.0 |
| 20260906013107 | 67 | 11 | 0.0 | 5.0 | 0.00 | 0.05 | 0.05 | 80 | 1018.0 |
| 20260906011619 | 68 | 0 | 0.0 | 4.0 | 0.00 | 0.05 | 0.05 | 79 | 1017.8 |
| 20260906010105 | 69 | 355 | 1.0 | 5.0 | 0.00 | 0.05 | 0.05 | 79 | 1017.5 |
| 20260906004600 | 69 | 11 | 0.0 | 5.0 | 0.00 | 0.05 | 0.05 | 78 | 1017.1 |
| 20260906003110 | 69 | 0 | 0.0 | 1.0 | 0.00 | 0.05 | 0.05 | 77 | 1017.0 |
| 20260906001605 | 70 | 0 | 0.0 | 0.0 | 0.00 | 0.05 | 0.05 | 75 | 1017.0 |
| 20260906000105 | 71 | 0 | 0.0 | 0.0 | 0.00 | 0.05 | 0.05 | 74 | 1016.6 |
| 20260905235334 | 72 | 0 | 0.0 | 0.0 | 0.00 | 0.00 | 0.05 | 72 | 1016.6 |
| 20260905234606 | 72 | 0 | 0.0 | 2.0 | 0.00 | 0.05 | 0.05 | 72 | 1016.6 |
| 20260905233134 | 72 | 0 | 0.0 | 3.0 | 0.00 | 0.05 | 0.05 | 71 | 1016.7 |
| 20260905231610 | 73 | 294 | 0.0 | 8.0 | 0.00 | 0.05 | 0.05 | 70 | 1016.7 |
| 20260905230542 | 75 | 0 | 1.0 | 1.0 | 0.00 | 0.00 | 0.05 | 69 | 1016.6 |
| 20260905230105 | 74 | 0 | 0.0 | 6.0 | 0.00 | 0.05 | 0.05 | 69 | 1016.6 |
| 20260905224627 | 74 | 0 | 0.0 | 4.0 | 0.00 | 0.05 | 0.05 | 68 | 1016.6 |
| 20260905223108 | 75 | 0 | 0.0 | 6.0 | 0.00 | 0.05 | 0.05 | 69 | 1016.4 |
| 20260905221607 | 75 | 360 | 0.0 | 8.0 | 0.00 | 0.05 | 0.05 | 70 | 1016.2 |
| 20260905221129 | 76 | 0 | 1.0 | 1.0 | 0.00 | 0.00 | 0.05 | 72 | 1016.3 |
| 20260905220106 | 75 | 0 | 0.0 | 7.0 | 0.00 | 0.05 | 0.05 | 72 | 1016.3 |
| 20260905214600 | 76 | 56 | 0.0 | 5.0 | 0.00 | 0.05 | 0.05 | 71 | 1016.3 |
| 20260905213103 | 77 | 343 | 1.0 | 4.0 | 0.00 | 0.05 | 0.05 | 70 | 1016.3 |
| 20260905211609 | 76 | 0 | 0.0 | 4.0 | 0.00 | 0.05 | 0.05 | 72 | 1016.2 |
| 20260905210105 | 76 | 5 | 0.0 | 4.0 | 0.00 | 0.05 | 0.05 | 71 | 1016.1 |
| 20260905204606 | 77 | 0 | 0.0 | 3.0 | 0.00 | 0.05 | 0.05 | 70 | 1016.1 |
| 20260905203106 | 78 | 217 | 0.0 | 1.0 | 0.00 | 0.05 | 0.05 | 71 | 1016.2 |
| 20260905201616 | 77 | 329 | 0.0 | 6.0 | 0.00 | 0.05 | 0.05 | 72 | 1016.2 |
| 20260905200107 | 78 | 36 | 0.0 | 9.0 | 0.00 | 0.05 | 0.05 | 70 | 1016.3 |
| 20260905194951 | 78 | 30 | 1.0 | 1.0 | 0.00 | 0.00 | 0.05 | 69 | 1016.6 |
| 20260905194602 | 77 | 30 | 0.0 | 5.0 | 0.00 | 0.05 | 0.05 | 69 | 1016.4 |
| 20260905193104 | 78 | 19 | 0.0 | 5.0 | 0.00 | 0.05 | 0.05 | 69 | 1016.4 |
| 20260905191611 | 77 | 355 | 0.0 | 3.0 | 0.00 | 0.05 | 0.05 | 70 | 1016.5 |
| 20260905190135 | 77 | 9 | 0.0 | 0.0 | 0.00 | 0.00 | 0.05 | 71 | 1016.6 |
| 20260905184622 | 78 | 0 | 0.0 | 4.0 | 0.00 | 0.05 | 0.05 | 70 | 1016.6 |
| 20260905183106 | 78 | 0 | 1.0 | 5.0 | 0.00 | 0.05 | 0.05 | 70 | 1016.7 |
| 20260905181604 | 75 | 0 | 1.0 | 7.0 | 0.00 | 0.05 | 0.05 | 75 | 1016.8 |
| 20260905180726 | 75 | 0 | 0.0 | 0.0 | 0.00 | 0.00 | 0.05 | 75 | 1016.9 |
| 20260905180105 | 75 | 0 | 0.0 | 5.0 | 0.00 | 0.05 | 0.05 | 75 | 1016.8 |
| 20260905174606 | 75 | 208 | 0.0 | 2.0 | 0.00 | 0.05 | 0.05 | 75 | 1016.7 |
| 20260905173113 | 75 | 0 | 0.0 | 8.0 | 0.00 | 0.05 | 0.05 | 75 | 1016.7 |
| 20260905171604 | 76 | 0 | 0.0 | 4.0 | 0.00 | 0.05 | 0.05 | 76 | 1016.6 |
| 20260905170116 | 76 | 59 | 0.0 | 4.0 | 0.00 | 0.05 | 0.05 | 76 | 1016.7 |
| 20260905164606 | 76 | 24 | 0.0 | 4.0 | 0.00 | 0.05 | 0.05 | 76 | 1016.9 |
| 20260905163106 | 76 | 63 | 0.0 | 4.0 | 0.00 | 0.05 | 0.05 | 77 | 1017.0 |
| 20260905161604 | 75 | 306 | 1.0 | 4.0 | 0.00 | 0.05 | 0.05 | 81 | 1016.9 |
| 20260905160101 | 74 | 13 | 0.0 | 4.0 | 0.00 | 0.05 | 0.05 | 79 | 1017.0 |
| 20260905154609 | 74 | 36 | 0.0 | 4.0 | 0.00 | 0.17 | 0.05 | 82 | 1017.0 |
| 20260905153105 | 72 | 163 | 1.0 | 4.0 | 0.00 | 0.17 | 0.05 | 86 | 1016.8 |
| 20260905152232 | 71 | 0 | 0.0 | 0.0 | 0.00 | 0.00 | 0.05 | 88 | 1016.9 |
| 20260905151559 | 70 | 0 | 0.0 | 2.0 | 0.00 | 0.17 | 0.05 | 88 | 1016.8 |
| 20260905150105 | 69 | 0 | 0.0 | 4.0 | 0.00 | 0.17 | 0.05 | 90 | 1016.8 |
| 20260905150005 | 69 | 0 | 0.0 | 0.0 | 0.00 | 0.00 | 0.05 | 92 | 1016.6 |
| 20260905144606 | 69 | 0 | 0.0 | 2.0 | 0.00 | 0.30 | 0.05 | 92 | 1016.6 |
| 20260905143107 | 69 | 0 | 0.0 | 2.0 | 0.02 | 0.30 | 0.05 | 93 | 1016.5 |
| 20260905141629 | 69 | 0 | 0.0 | 2.0 | 0.05 | 0.30 | 0.05 | 94 | 1016.3 |
| 20260905140553 | 68 | 0 | 1.0 | 1.0 | 0.05 | 0.00 | 0.05 | 94 | 1016.3 |
| 20260905140104 | 68 | 0 | 0.0 | 2.0 | 0.05 | 0.30 | 0.05 | 94 | 1016.3 |
| 20260905134608 | 67 | 0 | 0.0 | 1.0 | 0.05 | 0.48 | 0.05 | 95 | 1016.3 |
| 20260905133105 | 67 | 0 | 0.0 | 1.0 | 0.03 | 0.46 | 0.03 | 94 | 1016.2 |
| 20260905131632 | 67 | 203 | 0.0 | 2.0 | 0.00 | 0.43 | 0.00 | 94 | 1016.4 |
| 20260905130118 | 66 | 0 | 0.0 | 2.0 | 0.00 | 0.43 | 0.00 | 95 | 1016.4 |
| 20260905125529 | 67 | 228 | 1.0 | 1.0 | 0.00 | 0.00 | 0.00 | 95 | 1016.6 |
| 20260905124602 | 66 | 228 | 0.0 | 3.0 | 0.00 | 1.22 | 0.00 | 95 | 1016.4 |
| 20260905123112 | 66 | 0 | 0.0 | 2.0 | 0.00 | 1.22 | 0.00 | 95 | 1016.4 |
| 20260905121606 | 66 | 0 | 0.0 | 2.0 | 0.00 | 1.22 | 0.00 | 95 | 1016.3 |
| 20260905120104 | 66 | 182 | 0.0 | 1.0 | 0.00 | 1.22 | 0.00 | 96 | 1016.2 |
| 20260905114617 | 66 | 0 | 0.0 | 1.0 | 0.00 | 1.41 | 0.00 | 96 | 1016.0 |
| 20260905113117 | 66 | 0 | 0.0 | 4.0 | 0.00 | 1.41 | 0.00 | 96 | 1015.6 |
| 20260905111606 | 66 | 0 | 0.0 | 4.0 | 0.00 | 1.41 | 0.00 | 96 | 1015.7 |
| 20260905110104 | 66 | 0 | 0.0 | 4.0 | 0.00 | 1.41 | 0.00 | 96 | 1015.6 |
| 20260905104559 | 67 | 0 | 0.0 | 2.0 | 0.00 | 1.41 | 0.00 | 96 | 1015.6 |
| 20260905103104 | 67 | 9 | 0.0 | 1.0 | 0.00 | 1.41 | 0.00 | 97 | 1015.7 |
| 20260905101629 | 67 | 0 | 0.0 | 2.0 | 0.00 | 1.41 | 0.00 | 97 | 1015.5 |
| 20260905100108 | 67 | 0 | 0.0 | 2.0 | 0.00 | 1.41 | 0.00 | 97 | 1015.6 |
| 20260905095208 | 67 | 216 | 0.0 | 0.0 | 0.00 | 0.00 | 0.00 | 97 | 1015.6 |
| 20260905094604 | 67 | 216 | 0.0 | 3.0 | 0.00 | 1.41 | 0.00 | 97 | 1015.6 |
| 20260905093104 | 67 | 0 | 0.0 | 1.0 | 0.00 | 1.41 | 0.00 | 97 | 1015.4 |
| 20260905091620 | 67 | 261 | 0.0 | 1.0 | 0.00 | 1.41 | 0.00 | 97 | 1015.7 |
| 20260905090105 | 67 | 0 | 0.0 | 2.0 | 0.00 | 1.41 | 0.00 | 97 | 1015.6 |
| 20260905085754 | 68 | 0 | 0.0 | 0.0 | 0.00 | 0.00 | 0.00 | 97 | 1015.6 |
| 20260905084618 | 68 | 0 | 0.0 | 1.0 | 0.00 | 1.41 | 0.00 | 97 | 1015.7 |
| 20260905083103 | 68 | 0 | 0.0 | 2.0 | 0.00 | 1.41 | 0.00 | 97 | 1015.5 |
| 20260905081602 | 68 | 0 | 0.0 | 0.0 | 0.00 | 1.41 | 0.00 | 97 | 1015.1 |
| 20260905080111 | 68 | 0 | 0.0 | 1.0 | 0.00 | 1.41 | 0.00 | 97 | 1015.2 |
| 20260905074605 | 68 | 0 | 0.0 | 1.0 | 0.00 | 1.41 | 0.00 | 97 | 1015.3 |
| 20260905073104 | 69 | 180 | 0.0 | 0.0 | 0.00 | 1.41 | 0.00 | 96 | 1015.4 |
| 20260905071604 | 69 | 0 | 0.0 | 1.0 | 0.00 | 1.41 | 0.00 | 97 | 1015.4 |
| 20260905070931 | 70 | 0 | 0.0 | 0.0 | 0.00 | 0.00 | 0.00 | 97 | 1015.6 |
| 20260905070113 | 69 | 0 | 0.0 | 1.0 | 0.00 | 1.41 | 0.00 | 97 | 1015.4 |
| 20260905065324 | 70 | 0 | 0.0 | 0.0 | 0.00 | 0.00 | 0.00 | 96 | 1015.2 |
| 20260905064605 | 69 | 0 | 0.0 | 0.0 | 0.00 | 1.41 | 0.00 | 96 | 1015.1 |
| 20260905063103 | 69 | 0 | 0.0 | 1.0 | 0.00 | 1.41 | 0.00 | 96 | 1015.1 |
| 20260905061618 | 70 | 0 | 0.0 | 2.0 | 0.00 | 1.41 | 0.00 | 96 | 1015.0 |
| 20260905060108 | 70 | 0 | 0.0 | 0.0 | 0.00 | 1.41 | 0.00 | 96 | 1015.2 |